Hourly Data Report for June 13, 2021

OTTAWA INTL A
ONTARIO
Current Station Operator: NAVCAN

45°19'00.000" N
75°40'00.000" W
114.90 m
6106001
71628
YOW

Download Data

Hourly Data (June 2021)
Hourly Data Report for June 13, 2021
TIME
LST
Temp Definition
°C
Dew Point Definition
°C
Rel Hum Definition
%
Precip. Amount Definition
mm

Wind Dir Definition
10's deg

Wind Spd Definition
km/h
Visibility Definition
km
Stn Press Definition
kPa
Hmdx Definition


Wind Chill Definition


Weather Definition


00:00 15.0 7.9 62   23 4 24.1 99.74     LegendNANA
01:00 13.0 8.8 75   20 7 24.1 99.73     Mainly Clear
02:00 11.9 7.9 76   21 5 24.1 99.73     LegendNANA
03:00 12.7 8.7 77   21 5 24.1 99.73     LegendNANA
04:00 13.1 8.0 71   32 9 24.1 99.72     Mostly Cloudy
05:00 13.7 9.0 73   24 7 24.1 99.73     LegendNANA
06:00 14.8 10.1 73   23 5 24.1 99.79     LegendNANA
07:00 17.6 11.2 66   26 7 24.1 99.78     Mostly Cloudy
08:00 20.2 10.9 55   22 6 24.1 99.77     LegendNANA
09:00 22.5 9.2 42   17 4 24.1 99.74     LegendNANA
10:00 25.5 8.7 34   36 1 24.1 99.72 26   Mainly Clear
11:00 26.3 9.3 34   19 4 24.1 99.70 27   LegendNANA
12:00 28.1 10.4 33   22 10 24.1 99.65 30   LegendNANA
13:00 27.9 10.4 33   24 8 24.1 99.57 29   Mostly Cloudy
14:00 27.2 11.3 37   36 2 24.1 99.53 29   LegendNANA
15:00 27.1 11.5 37   13 8 24.1 99.48 29   LegendNANA
16:00 25.9 13.0 44   17 11 24.1 99.46 29   Mostly Cloudy
17:00 26.9 12.7 41   20 16 24.1 99.41 30   LegendNANA
18:00 25.5 13.2 46   17 10 24.1 99.37 28   LegendNANA
19:00 24.5 12.8 47   19 11 24.1 99.37 27   Mostly Cloudy
20:00 23.1 12.6 51   18 9 24.1 99.37 26   Rain Showers
21:00 22.4 12.9 54   28 14 24.1 99.42 25   LegendNANA
22:00 21.0 12.6 58   18 8 24.1 99.34     Mostly Cloudy
23:00 19.1 15.2 78   1 14 24.1 99.35     Thunderstorms,Rain Showers

Notes on Data Quality.

Legend

  • E = Estimated
  • M = Missing
  • NA = Not Available*
  • [empty] = Indicates an unobserved value
Date modified: